Location: Banios
(43.0451°N, 0.2335°E)
Time: 10:27:21
(UTC+00:00)

Envisat - Pass Details

Date: 17 December 2021
Orbit: 764 x 766 km, 98.2° (Epoch: 20 January)

Event Time Altitude Azimuth Distance (km) Brightness Sun altitude
Rises 04:08:56 0° 23° (NNE) 3,241 6.5 -34.8°
Reaches altitude 10° 04:11:33 10° 35° (NE) 2,309 5.8 -34.3°
Maximum altitude 04:15:56 29° 95° (E) 1,386 4.8 -33.5°
Drops below altitude 10° 04:20:17 10° 154° (SSE) 2,294 5.7 -32.7°
Sets 04:22:52 0° 166° (SSE) 3,214 6.4 -32.2°
